Weather History for Lake Charles Regional, LA

Change the Weather History Date:

Tuesday, November 5, 2013

  Actual Average Record
Temperature  
Mean Temperature 72 °F 64 °F  
Max Temperature 81 °F 75 °F 87 °F (1916)
Min Temperature 62 °F 54 °F 29 °F (1991)
Degree Days  
Heating Degree Days 0 3  
Month to date heating degree days 11 15  
Since 1 July heating degree days 29 51  
Cooling Degree Days 7 3  
Month to date cooling degree days 10 15  
Year to date cooling degree days 2917 2748  
Growing Degree Days 22 (Base 50)    
Moisture  
Dew Point 64 °F    
Average Humidity 81    
Maximum Humidity 100    
Minimum Humidity 62    
Precipitation  
Precipitation 0.01 in 0.16 in 3.74 in (2002)
Month to date precipitation 0.03 0.80  
Year to date precipitation 52.26 49.18  
Snow  
Snow 0.00 in 0.00 in 0.00 in ()
Month to date snowfall 0.0 0.0  
Since 1 July snowfall 0.0 0.0  
Since 1 September snowfall 0.0 0.0  
Snow Depth 0.00 in    
Sea Level Pressure  
Sea Level Pressure 30.09 in    
Wind  
Wind Speed 11 mph (ESE)    
Max Wind Speed 23 mph    
Max Gust Speed 28 mph    
Visibility 10 miles    
Events Rain    
T = Trace of Precipitation, MM = Missing Value Source: NWS Daily Summary

Daily Weather History Graph

Daily Weather History Graph

Search for Another Location

Airport:

Trip Planner

Search our weather history database for the weather conditions in past years. The results will help you decide how hot, cold, wet, or windy it might be!

Date:

Astronomy

Nov. 05, 2013 Rise Set
Actual Time 6:30 AM CST 5:22 PM CST
Civil Twilight 6:05 AM CST 5:47 PM CST
Nautical Twilight 5:36 AM CST 6:15 PM CST
Astronomical Twilight 5:08 AM CST 6:43 PM CST
Moon 8:39 AM CST (11/5) 7:30 PM CST (11/5)
Length of Visible Light 11h 41m
Length of Day
10h 52m
Waxing Crescent, 7% of the Moon is Illuminated
Nov 5
Waxing Crescent
Nov 9
First Quarter
Nov 17
Full
Nov 25
Last Quarter
Dec 2
New

Hourly Weather History & Observations

Time (CST) Temp. Heat Index Dew Point Humidity Pressure Visibility Wind Dir Wind Speed Gust Speed Precip Events Conditions
12:53 AM 63.0 °F - 60.1 °F 90% 30.11 in 10.0 mi East 6.9 mph - N/A   Clear
1:19 AM 62.6 °F - 60.8 °F 94% 30.09 in 10.0 mi East 4.6 mph - N/A   Partly Cloudy
1:53 AM 63.0 °F - 61.0 °F 93% 30.11 in 10.0 mi East 3.5 mph - N/A   Clear
2:00 AM 62.6 °F - 60.8 °F 94% 30.09 in 10.0 mi Calm Calm - N/A   Scattered Clouds
2:11 AM 62.6 °F - 60.8 °F 94% 30.09 in 10.0 mi Calm Calm - N/A   Mostly Cloudy
2:44 AM 62.6 °F - 60.8 °F 94% 30.09 in 10.0 mi East 4.6 mph - N/A   Scattered Clouds
2:53 AM 62.1 °F - 60.1 °F 93% 30.11 in 10.0 mi ENE 4.6 mph - N/A   Partly Cloudy
3:53 AM 63.0 °F - 61.0 °F 93% 30.09 in 10.0 mi East 8.1 mph - N/A   Clear
4:53 AM 63.0 °F - 61.0 °F 93% 30.09 in 10.0 mi ESE 6.9 mph - N/A   Clear
5:53 AM 63.0 °F - 62.1 °F 97% 30.09 in 9.0 mi East 6.9 mph - N/A   Clear
6:53 AM 64.0 °F - 62.1 °F 93% 30.11 in 9.0 mi East 6.9 mph - N/A   Clear
7:53 AM 64.9 °F - 62.1 °F 90% 30.13 in 10.0 mi East 10.4 mph - N/A   Clear
8:53 AM 69.1 °F - 64.0 °F 84% 30.14 in 10.0 mi East 9.2 mph - N/A   Clear
9:53 AM 75.0 °F - 64.9 °F 71% 30.14 in 10.0 mi ESE 12.7 mph - N/A   Clear
10:53 AM 77.0 °F - 66.0 °F 69% 30.13 in 10.0 mi ESE 12.7 mph - N/A   Scattered Clouds
11:53 AM 79.0 °F - 66.9 °F 66% 30.10 in 10.0 mi ESE 15.0 mph 25.3 mph N/A   Partly Cloudy
12:51 PM 80.6 °F 82.7 °F 66.2 °F 61% 30.06 in 10.0 mi ESE 15.0 mph 25.3 mph N/A   Mostly Cloudy
12:53 PM 80.1 °F 82.3 °F 66.9 °F 64% 30.09 in 10.0 mi SE 16.1 mph 25.3 mph N/A   Mostly Cloudy
1:37 PM 80.6 °F 83.2 °F 68.0 °F 65% 30.05 in 10.0 mi ESE 18.4 mph - N/A   Overcast
1:53 PM 78.1 °F - 68.0 °F 71% 30.07 in 10.0 mi ESE 12.7 mph - N/A   Overcast
2:53 PM 75.0 °F - 68.0 °F 79% 30.06 in 8.0 mi ESE 13.8 mph 24.2 mph 0.00 in Rain Light Rain
3:53 PM 75.9 °F - 66.9 °F 74% 30.06 in 10.0 mi SE 17.3 mph 26.5 mph 0.00 in   Overcast
4:53 PM 75.0 °F - 66.9 °F 76% 30.06 in 10.0 mi SE 13.8 mph 24.2 mph N/A   Mostly Cloudy
5:53 PM 72.0 °F - 66.9 °F 84% 30.07 in 10.0 mi ESE 8.1 mph - N/A   Mostly Cloudy
6:53 PM 73.0 °F - 66.9 °F 81% 30.08 in 10.0 mi ESE 10.4 mph - N/A   Overcast
7:53 PM 72.0 °F - 66.0 °F 81% 30.08 in 10.0 mi ESE 13.8 mph - N/A   Overcast
8:53 PM 72.0 °F - 64.9 °F 78% 30.09 in 10.0 mi SE 18.4 mph 23.0 mph N/A   Overcast
9:53 PM 69.1 °F - 66.9 °F 93% 30.11 in 6.0 mi SE 13.8 mph - 0.00 in Rain Light Rain
10:53 PM 69.1 °F - 66.0 °F 90% 30.11 in 8.0 mi ESE 11.5 mph - 0.01 in   Overcast
11:53 PM 69.1 °F - 66.9 °F 93% 30.09 in 10.0 mi ESE 10.4 mph - 0.00 in   Overcast